Location: *
(47.2969°N, 10.2930°E)
Time: 00:41:06
(UTC+00:00)

COSMOS 2406 - Pass Details

Date: 09 April 2020
Orbit: 842 x 865 km, 71.0° (Epoch: 30 May)

Event Time Altitude Azimuth Distance (km) Brightness Sun altitude
Exits shadow 19:13:14 17° 116° (ESE) 2,010 4.5 -12.5°
Maximum altitude 19:14:30 18° 99° (E) 1,944 4.5 -12.7°
Drops below altitude 10° 19:18:17 10° 57° (ENE) 2,484 5.4 -13.2°
Sets 19:21:27 0° 40° (NE) 3,430 6.2 -13.7°
